Location: Punxsutawney
(40.9447°N, 78.9903°W)
Time: 08:18:29
(UTC-05:00)

Daily predictions for brighter satellites

Satellite Brightness Start Highest point End
(mag) Time Altitude Azimuth Time Altitude Azimuth Time Altitude Azimuth
Cosmos 1420 Rocket 4.2 17:43:09 10° SSW 17:48:18 77° WNW 17:53:31 10° NNE
OAO 3 Rocket 4.5 17:43:58 10° SW 17:48:25 34° SSE 17:52:53 10° ESE
NOAA 12 4.5 17:44:35 10° SE 17:49:27 41° ENE 17:54:20 10° N
SL-16 R/B 2.6 17:48:09 10° N 17:53:30 41° ENE 17:58:50 10° SE
SL-4 R/B 3.8 17:52:10 10° WNW 17:55:21 21° N 17:58:43 10° NE
ASTEX 1 3.4 17:51:04 10° SSE 17:56:03 80° E 18:01:04 10° N
Cosmos 2360 Rocket 3.4 17:53:34 10° N 17:57:44 21° NE 18:01:53 10° E
Ariane Rocket 3.7 17:54:21 10° SE 17:58:47 32° ENE 18:03:14 10° N
Cosmos 1703 4.2 17:56:21 10° SSE 17:59:40 27° E 18:02:59 10° NNE
ISS -3.4 17:56:38 10° SW 17:59:49 48° SE 18:02:58 10° ENE
Cosmos 2026 Rocket 4.3 17:54:45 10° N 18:00:44 45° ENE 18:06:36 10° SSE
Cosmos 1741 Rocket 4.0 17:56:14 10° NNW 18:01:28 65° ENE 18:06:41 10° SSE
Cosmos 1452 Rocket 4.1 17:56:17 10° SSW 18:01:30 60° WNW 18:06:44 10° NNE
Cosmos 1980 Rocket 3.1 17:56:31 10° NNW 18:02:03 55° WSW 18:07:35 10° S
ATLAS 3B R/B 3.3 18:03:10 10° NNW 18:09:01 32° NE 18:14:51 10° ESE
EXPRESS MD2 3.2 18:07:21 10° W 18:09:22 34° NNW 18:11:38 11° NE
PSLV R/B 2.9 18:06:38 10° W 18:09:36 85° S 18:12:21 12° E
USA 116 4.3 18:05:43 10° NNE 18:10:42 57° E 18:15:10 10° S
Cosmos 1634 Rocket 4.0 18:06:16 10° S 18:12:28 69° E 18:18:46 10° NNE
Cosmos 2322 Rocket 2.3 18:07:00 10° NNW 18:12:29 52° ENE 18:17:56 10° SE
Cosmos 1328 3.7 18:09:44 10° S 18:13:37 66° E 18:17:33 10° NNE
SKYMED 2 3.6 18:09:29 10° NNE 18:13:47 61° E 18:18:04 10° S
CSL-04 Rocket 3.7 18:08:55 10° SSE 18:14:27 75° ENE 18:20:01 10° N
USA 238 DEB 3.9 18:07:41 10° NNW 18:14:46 59° NE 18:22:00 10° SE
USA 238 3.9 18:07:49 10° NNW 18:14:53 59° NE 18:22:04 10° SE
Cosmos 1626 3.4 18:13:33 10° SSW 18:17:07 44° W 18:20:42 10° N
ALOS 4.1 18:14:17 10° SSW 18:18:34 36° W 18:22:52 10° NNW
Cosmos 1850 Rocket 4.2 18:16:38 10° NNW 18:21:59 79° WSW 18:27:14 10° SSE
ATLAS 2AS CENTAUR R/B 3.1 18:17:14 10° SSW 18:25:03 76° ESE 18:33:09 10° NE
CZ-4 R/B 4.4 18:21:22 10° SSE 18:25:32 80° ENE 18:29:41 10° N
Cosmos 921 Rocket 4.2 18:22:13 10° SSE 18:25:43 23° E 18:27:40 17° ENE
Cosmos 1655 Rocket 4.4 18:20:06 10° N 18:26:09 42° ENE 18:32:07 10° SE
Meteor 2-10 Rocket 4.0 18:22:33 10° N 18:27:11 33° ENE 18:31:41 10° SE
NOSS 2-2 (E) 4.0 18:24:47 10° S 18:28:10 34° ESE 18:30:18 20° ENE
Cosmos 2082 Rocket 4.5 18:25:04 10° W 18:29:08 20° NW 18:33:14 10° N
NOSS 2-2 (C) 4.1 18:28:37 10° S 18:31:55 30° ESE 18:33:30 22° ENE
YAOGAN 1 2.5 18:32:30 10° SSE 18:36:50 89° ENE 18:41:11 10° NNW
Cosmos 1238 Rocket 2.1 18:34:29 10° S 18:37:44 84° W 18:40:43 10° N
Cosmos 1184 Rocket 2.9 18:35:39 10° N 18:38:51 47° ENE 18:42:01 10° SSE
H-2A R/B 3.2 18:35:10 10° S 18:38:52 61° W 18:42:34 10° NNW
Aureole 1 4.4 18:36:47 10° S 18:40:19 54° ESE 18:41:49 26° NE
IRS-1A Rocket 4.2 18:35:22 10° SSE 18:40:45 57° ENE 18:46:09 10° N
Cosmos 2219 Rocket 3.8 18:39:56 10° NNE 18:42:36 15° NE 18:42:36 15° NE
Cosmos 2333 Rocket 3.8 18:40:28 10° NNE 18:43:17 15° NE 18:43:17 15° NE
CZ-2C R/B 3.9 18:42:32 10° NNE 18:46:49 46° E 18:51:05 10° S
Cosmos 1818 3.5 18:43:50 10° NNW 18:49:19 69° NE 18:54:43 10° SE
Cosmos 2151 4.4 18:46:14 10° SE 18:48:14 20° ESE 18:48:14 20° ESE
Cosmos 1455 2.4 18:47:00 10° NNW 18:50:48 73° W 18:54:36 10° S
Cosmos 1110 Rocket 4.2 18:49:17 10° SSW 18:54:24 70° WNW 18:59:36 10° NNE
NOSS 3-2 (C) 4.1 18:48:24 10° NNW 18:55:52 58° NE 19:03:55 10° SE
Cosmos 1331 Rocket 4.1 18:51:13 10° SSW 18:56:24 76° WNW 19:01:40 10° NNE
Meteor 2-2 Rocket 4.2 18:53:15 10° N 18:59:13 87° E 19:05:00 10° S
Envisat 2.9 18:54:09 10° SSE 18:59:13 81° ENE 19:04:19 10° N
GPS 2-05 Rocket1 3.8 18:57:12 10° WSW 18:59:46 28° S 19:00:01 27° SSE
Cosmos 1302 Rocket 4.0 18:55:20 10° S 19:00:32 64° ESE 19:04:09 20° NNE
COSMO-SKYMED 1 4.0 18:57:45 10° N 19:01:47 39° WNW 19:05:49 10° SW
DMSP B5D1-3 4.4 18:57:35 10° NNE 19:02:42 90° ESE 19:07:48 10° SSW
MOS 1 4.2 19:01:44 10° SSE 19:07:22 71° ENE 19:13:01 10° N
GPS 2-04 Rocket1 3.6 19:07:19 10° WSW 19:10:55 36° S 19:11:29 34° SSE
USA 215 3.2 19:07:46 27° NE 19:11:40 80° SE 19:18:12 10° SW
CENTAUR R/B 3.3 19:08:25 10° NNW 19:16:07 50° NE 19:19:38 33° ESE
CZ-4 R/B 4.1 19:14:19 10° SW 19:17:14 20° W 19:20:09 10° NW
NOSS 3-4 (A) 3.3 19:12:31 10° SSW 19:18:35 76° ESE 19:21:26 34° NE
NOSS 3-4 (C) 3.3 19:12:37 10° SSW 19:18:41 76° ESE 19:21:30 35° NE
Cosmos 2344 4.5 19:14:52 10° SSE 19:19:53 26° ESE 19:19:53 26° ESE
Cosmos 1486 Rocket 3.9 19:16:07 10° NNW 19:21:19 62° ENE 19:22:34 47° ESE
Cosmos 2237 4.1 19:17:11 10° NNW 19:22:56 73° ENE 19:26:02 28° SE
Cosmos 44 Rocket 4.4 19:18:12 10° SW 19:23:10 45° NW 19:26:27 20° NNE
Cosmos 1437 Rocket 4.0 19:22:55 10° S 19:25:15 32° S 19:25:15 32° S
Lacrosse 4 Rocket 2.9 19:24:58 10° S 19:26:47 25° S 19:26:47 25° S
OAO 3 Rocket 3.9 19:26:53 10° WSW 19:31:32 42° S 19:32:06 40° SSE
SPOT 3 Rocket 3.4 19:29:20 10° SSE 19:34:28 83° ENE 19:39:39 10° NNW
SL-4 R/B 4.0 19:32:41 10° NW 19:35:10 21° N 19:35:10 21° N
ISS -1.6 19:33:40 10° W 19:35:42 23° NW 19:35:42 23° NW
SL-16 R/B 4.2 19:32:39 10° NW 19:37:23 28° WSW 19:42:07 10° SSW
Cosmos 2360 Rocket 2.5 19:36:37 10° NNW 19:42:12 64° WSW 19:47:46 10° S
Cosmos 2333 4.4 19:38:00 10° NNW 19:42:38 53° NNE 19:42:38 53° NNE
USA 267 3.5 19:44:55 46° NE 19:45:10 47° NNE 19:51:22 10° NW
Cosmos 2058 4.0 19:41:35 10° SSW 19:45:33 44° WNW 19:46:40 35° NW
Cosmos 2266 Rocket 4.1 19:43:13 10° N 19:49:27 77° W 19:55:47 10° S
Cosmos 1867 4.2 19:47:10 10° SW 19:52:28 52° NW 19:53:49 42° N
Cosmos 1408 Rocket 4.2 19:48:14 10° SSW 19:52:01 52° WSW 19:52:01 52° WSW
Milstar 3 3.9 19:48:24 10° WSW 19:54:22 29° S 19:55:41 27° SSE
COSMOS 2428 3.6 19:51:22 10° NNW 19:54:45 36° N 19:54:45 36° N
ATLAS 3B R/B 3.1 19:53:33 10° NW 20:00:00 57° WSW 20:03:39 27° S
USA 32 4.5 19:55:48 10° N 20:06:19 - S 20:00:01 55° NW
Cosmos 2322 4.4 20:09:21 10° NNW 20:14:55 52° WSW 20:15:23 50° SW
ATLAS 2AS CENTAUR R/B 4.4 20:09:51 10° W 20:16:51 32° NW 20:21:27 19° N
Cosmos 2219 Rocket 3.9 20:22:18 10° NNW 20:24:22 24° NNW 20:24:22 24° NNW
Cosmos 2333 Rocket 3.9 20:23:09 10° NNW 20:25:20 24° NNW 20:25:20 24° NNW
USA 215 4.4 20:55:07 36° NW 20:55:07 36° NW 21:00:10 10° W
CENTAUR R/B 3.9 20:59:17 10° NW 21:06:55 45° WSW 21:06:55 45° WSW
